QFA45 YMEN-YSCB

Flight info

Callsign QFA45
Flight time 0h 48m
Altitude 37000
Route DCT ML DCT DOSEL DCT EBONY DCT ARRAN DCT CB DCT
Aircraft B737/M-V/N

Departure

Time 2026-04-22 02:13
Airport Melbourne Essendon Airport (YMEN)

Arrival

Time 2026-04-22 03:02
Airport Canberra Airport (YSCB)
Time Latitude Longitude Altitude Speed Heading
2026-04-22 01:57 -37.72329 144.89882 286 ft 0 kts 243°
2026-04-22 02:06 -37.72325 144.89890 283 ft 3 kts 239°
2026-04-22 02:06 -37.72309 144.89916 287 ft 3 kts 216°
2026-04-22 02:07 -37.72298 144.89925 286 ft 3 kts 201°
2026-04-22 02:07 -37.72279 144.89931 286 ft 3 kts 181°
2026-04-22 02:07 -37.72259 144.89930 287 ft 3 kts 176°
2026-04-22 02:07 -37.72253 144.89930 287 ft 1 kts 178°
2026-04-22 02:10 -37.72273 144.89939 287 ft 12 kts 155°
2026-04-22 02:10 -37.72412 144.89974 279 ft 28 kts 177°
2026-04-22 02:10 -37.72633 144.89983 273 ft 34 kts 178°
2026-04-22 02:10 -37.72884 144.89997 266 ft 37 kts 178°
2026-04-22 02:11 -37.73121 144.90008 262 ft 31 kts 177°
2026-04-22 02:11 -37.73328 144.90016 256 ft 26 kts 177°
2026-04-22 02:11 -37.73383 144.90073 246 ft 0 kts 110°
2026-04-22 02:12 -37.73384 144.90107 245 ft 8 kts 78°
2026-04-22 02:12 -37.73342 144.90136 255 ft 7 kts 356°
2026-04-22 02:12 -37.73333 144.90135 256 ft 0 kts 356°
2026-04-22 02:12 -37.73324 144.90135 252 ft 6 kts 356°
2026-04-22 02:13 -37.73211 144.90128 257 ft 31 kts 358°
2026-04-22 02:13 -37.72776 144.90108 265 ft 96 kts 358°
2026-04-22 02:13 -37.71921 144.90066 514 ft 132 kts 359°
2026-04-22 02:13 -37.70993 144.90018 1097 ft 136 kts 357°
2026-04-22 02:14 -37.70048 144.89992 1556 ft 136 kts
2026-04-22 02:14 -37.69077 144.90020 1952 ft 141 kts 359°
2026-04-22 02:14 -37.68072 144.90049 2336 ft 151 kts 358°
2026-04-22 02:14 -37.66984 144.90101 2691 ft 165 kts
2026-04-22 02:15 -37.65939 144.90822 3118 ft 176 kts 31°
2026-04-22 02:15 -37.64945 144.91811 3522 ft 185 kts 32°
2026-04-22 02:15 -37.63915 144.92861 3815 ft 198 kts 33°
2026-04-22 02:15 -37.62866 144.93886 4141 ft 189 kts 33°
2026-04-22 02:16 -37.61806 144.94910 4513 ft 199 kts 32°
2026-04-22 02:16 -37.60670 144.95954 4957 ft 204 kts 33°
2026-04-22 02:16 -37.59459 144.97016 5340 ft 221 kts 32°
2026-04-22 02:16 -37.58037 144.97787 5750 ft 228 kts 24°
2026-04-22 02:17 -37.56673 144.98803 6166 ft 229 kts 32°
2026-04-22 02:17 -37.55320 144.99918 6557 ft 245 kts 33°
2026-04-22 02:17 -37.53793 145.01165 6927 ft 272 kts 33°
2026-04-22 02:17 -37.52182 145.02446 7816 ft 276 kts 33°
2026-04-22 02:18 -37.50552 145.03718 8718 ft 280 kts 32°
2026-04-22 02:18 -37.48887 145.05026 9663 ft 283 kts 32°
2026-04-22 02:18 -37.47206 145.06358 10545 ft 287 kts 32°
2026-04-22 02:18 -37.45504 145.07719 11374 ft 291 kts 32°
2026-04-22 02:19 -37.43788 145.09105 12183 ft 295 kts 32°
2026-04-22 02:19 -37.42045 145.10526 12980 ft 300 kts 32°
2026-04-22 02:19 -37.40278 145.11974 13782 ft 305 kts 33°
2026-04-22 02:19 -37.38490 145.13448 14534 ft 309 kts 32°
2026-04-22 02:20 -37.36683 145.14944 15240 ft 313 kts 32°
2026-04-22 02:20 -37.34849 145.16464 15951 ft 318 kts 33°
2026-04-22 02:20 -37.33019 145.17981 16653 ft 321 kts 32°
2026-04-22 02:20 -37.31135 145.19545 17355 ft 325 kts 32°
2026-04-22 02:21 -37.29232 145.21127 18048 ft 329 kts 32°
2026-04-22 02:21 -37.27312 145.22725 18722 ft 333 kts 33°
2026-04-22 02:21 -37.25371 145.24345 19318 ft 336 kts 32°
2026-04-22 02:21 -37.23409 145.25986 19923 ft 340 kts 33°
2026-04-22 02:22 -37.21431 145.27632 20523 ft 342 kts 30°
2026-04-22 02:22 -37.19467 145.29332 21114 ft 346 kts 42°
2026-04-22 02:22 -37.17934 145.31667 21705 ft 350 kts 56°
2026-04-22 02:22 -37.16729 145.34292 22276 ft 354 kts 61°
2026-04-22 02:23 -37.15616 145.37070 22731 ft 361 kts 64°
2026-04-22 02:23 -37.14658 145.40029 23036 ft 372 kts 68°
2026-04-22 02:23 -37.13605 145.43053 23219 ft 384 kts 59°
2026-04-22 02:23 -37.11993 145.45786 23394 ft 397 kts 47°
2026-04-22 02:24 -37.10340 145.48633 23498 ft 413 kts 60°
2026-04-22 02:24 -37.09112 145.51958 23651 ft 428 kts 68°
2026-04-22 02:24 -37.07899 145.55395 23931 ft 436 kts 59°
2026-04-22 02:24 -37.06072 145.58453 24241 ft 443 kts 45°
2026-04-22 02:25 -37.03668 145.60882 24574 ft 447 kts 28°
2026-04-22 02:25 -37.00949 145.62799 24934 ft 452 kts 37°
2026-04-22 02:25 -36.98832 145.65727 25309 ft 460 kts 57°
2026-04-22 02:25 -36.97343 145.69290 25679 ft 465 kts 65°
2026-04-22 02:26 -36.96143 145.73076 26068 ft 470 kts 69°
2026-04-22 02:26 -36.94915 145.76831 26439 ft 473 kts 64°
2026-04-22 02:26 -36.93344 145.80456 26906 ft 474 kts 57°
2026-04-22 02:26 -36.91478 145.83853 27468 ft 473 kts 53°
2026-04-22 02:27 -36.89482 145.87127 28008 ft 473 kts 51°
2026-04-22 02:27 -36.87465 145.90368 28525 ft 473 kts 51°
2026-04-22 02:27 -36.85436 145.93608 29043 ft 473 kts 51°
2026-04-22 02:27 -36.83405 145.96849 29569 ft 473 kts 51°
2026-04-22 02:28 -36.81382 146.00092 30109 ft 473 kts 51°
2026-04-22 02:28 -36.79416 146.03398 30582 ft 474 kts 53°
2026-04-22 02:28 -36.77520 146.06698 31017 ft 473 kts 53°
2026-04-22 02:28 -36.75619 146.10046 31447 ft 473 kts 54°
2026-04-22 02:29 -36.73722 146.13400 31865 ft 473 kts 54°
2026-04-22 02:29 -36.71829 146.16757 32270 ft 473 kts 54°
2026-04-22 02:29 -36.69939 146.20114 32678 ft 473 kts 54°
2026-04-22 02:29 -36.68052 146.23468 33079 ft 473 kts 54°
2026-04-22 02:30 -36.66166 146.26822 33470 ft 473 kts 54°
2026-04-22 02:30 -36.64280 146.30176 33861 ft 473 kts 54°
2026-04-22 02:30 -36.62353 146.33496 34244 ft 473 kts 52°
2026-04-22 02:30 -36.60346 146.36744 34567 ft 473 kts 51°
2026-04-22 02:31 -36.58361 146.40016 34878 ft 474 kts 53°
2026-04-22 02:31 -36.56431 146.43343 35206 ft 474 kts 53°
2026-04-22 02:31 -36.54491 146.46672 35532 ft 474 kts 52°
2026-04-22 02:31 -36.52514 146.49957 35845 ft 475 kts 52°
2026-04-22 02:32 -36.50521 146.53255 35970 ft 480 kts 52°
2026-04-22 02:32 -36.46542 146.59980 36049 ft 493 kts 52°
2026-04-22 02:33 -36.42377 146.66923 36125 ft 507 kts 52°
2026-04-22 02:33 -36.38134 146.74026 36199 ft 513 kts 52°
2026-04-22 02:34 -36.33869 146.81129 36245 ft 513 kts 52°
2026-04-22 02:34 -36.29622 146.88195 36364 ft 514 kts 52°
2026-04-22 02:34 -36.27484 146.91752 36582 ft 512 kts 52°
2026-04-22 02:35 -36.25348 146.95292 36930 ft 511 kts 52°
2026-04-22 02:35 -36.23220 146.98814 37310 ft 504 kts 52°
2026-04-22 02:35 -36.21179 147.02198 37341 ft 488 kts 52°
2026-04-22 02:35 -36.19181 147.05506 37346 ft 473 kts 52°
2026-04-22 02:36 -36.17213 147.08757 37341 ft 471 kts 52°
2026-04-22 02:36 -36.13282 147.15296 37339 ft 474 kts 52°
2026-04-22 02:36 -36.11307 147.18579 37143 ft 476 kts 52°
2026-04-22 02:37 -36.09324 147.21855 36856 ft 477 kts 52°
2026-04-22 02:37 -36.07334 147.25141 36571 ft 478 kts 52°
2026-04-22 02:37 -36.05344 147.28438 36305 ft 479 kts 52°
2026-04-22 02:37 -36.03348 147.31740 36055 ft 480 kts 52°
2026-04-22 02:38 -36.01345 147.35044 35800 ft 481 kts 52°
2026-04-22 02:38 -35.99334 147.38356 35567 ft 482 kts 53°
2026-04-22 02:38 -35.97349 147.41628 35360 ft 480 kts 53°
2026-04-22 02:39 -35.93355 147.48201 35363 ft 480 kts 53°
2026-04-22 02:39 -35.89347 147.54779 35358 ft 479 kts 53°
2026-04-22 02:40 -35.85341 147.61348 35349 ft 479 kts 53°
2026-04-22 02:40 -35.83609 147.64849 35355 ft 479 kts 66°
2026-04-22 02:40 -35.82418 147.68680 35348 ft 480 kts 72°
2026-04-22 02:41 -35.80263 147.76463 35347 ft 481 kts 72°
2026-04-22 02:41 -35.78070 147.84245 35351 ft 483 kts 72°
2026-04-22 02:42 -35.75868 147.92088 35351 ft 489 kts 72°
2026-04-22 02:42 -35.73625 148.00031 35351 ft 490 kts 72°
2026-04-22 02:43 -35.71383 148.07957 35348 ft 491 kts 72°
2026-04-22 02:43 -35.69130 148.15896 35124 ft 494 kts 72°
2026-04-22 02:43 -35.68001 148.19859 34757 ft 486 kts 72°
2026-04-22 02:44 -35.66903 148.23712 34312 ft 480 kts 72°
2026-04-22 02:44 -35.65804 148.27571 33765 ft 475 kts 73°
2026-04-22 02:44 -35.64718 148.31380 33231 ft 470 kts 72°
2026-04-22 02:44 -35.63637 148.35154 32704 ft 465 kts 72°
2026-04-22 02:45 -35.62569 148.38881 32195 ft 460 kts 72°
2026-04-22 02:45 -35.61509 148.42581 31693 ft 455 kts 72°
2026-04-22 02:45 -35.60459 148.46238 31202 ft 450 kts 72°
2026-04-22 02:45 -35.59420 148.49850 30712 ft 446 kts 73°
2026-04-22 02:46 -35.58390 148.53428 30213 ft 443 kts 73°
2026-04-22 02:46 -35.57362 148.56998 29663 ft 444 kts 73°
2026-04-22 02:46 -35.56327 148.60588 29123 ft 445 kts 72°
2026-04-22 02:46 -35.55307 148.64113 28602 ft 442 kts 72°
2026-04-22 02:47 -35.54279 148.67660 28069 ft 437 kts 72°
2026-04-22 02:47 -35.53264 148.71166 27561 ft 433 kts 72°
2026-04-22 02:47 -35.52260 148.74632 27055 ft 429 kts 72°
2026-04-22 02:47 -35.51262 148.78067 26533 ft 425 kts 73°
2026-04-22 02:48 -35.50279 148.81444 25987 ft 415 kts 73°
2026-04-22 02:48 -35.49319 148.84738 25409 ft 405 kts 73°
2026-04-22 02:48 -35.48382 148.87956 24798 ft 392 kts 73°
2026-04-22 02:48 -35.47493 148.90992 24158 ft 365 kts 73°
2026-04-22 02:49 -35.46673 148.93800 23466 ft 344 kts 73°
2026-04-22 02:49 -35.45887 148.96494 22740 ft 327 kts 73°
2026-04-22 02:49 -35.45136 148.99064 22035 ft 313 kts 73°
2026-04-22 02:49 -35.44413 149.01532 21355 ft 302 kts 73°
2026-04-22 02:50 -35.43713 149.03921 20693 ft 292 kts 73°
2026-04-22 02:50 -35.43038 149.06220 20105 ft 275 kts 73°
2026-04-22 02:50 -35.42422 149.08303 19473 ft 249 kts 73°
2026-04-22 02:50 -35.41841 149.10292 18815 ft 247 kts 73°
2026-04-22 02:51 -35.41276 149.12223 18077 ft 240 kts 73°
2026-04-22 02:51 -35.41037 149.14175 17320 ft 230 kts 103°
2026-04-22 02:51 -35.41822 149.15819 16598 ft 227 kts 141°
2026-04-22 02:51 -35.43261 149.16589 15883 ft 228 kts 163°
2026-04-22 02:52 -35.44816 149.16970 15193 ft 228 kts 167°
2026-04-22 02:52 -35.46381 149.17208 14484 ft 228 kts 179°
2026-04-22 02:52 -35.47904 149.16581 13762 ft 238 kts 211°
2026-04-22 02:52 -35.48972 149.15038 12998 ft 242 kts 243°
2026-04-22 02:53 -35.49300 149.13733 12520 ft 242 kts 256°
2026-04-22 02:53 -35.49562 149.11707 11790 ft 238 kts 261°
2026-04-22 02:53 -35.49771 149.09703 11068 ft 234 kts 262°
2026-04-22 02:53 -35.49977 149.07737 10370 ft 231 kts 262°
2026-04-22 02:54 -35.50251 149.05175 9344 ft 225 kts 262°
2026-04-22 02:54 -35.50388 149.03897 8833 ft 222 kts 261°
2026-04-22 02:54 -35.50640 149.01443 7856 ft 216 kts 261°
2026-04-22 02:54 -35.50806 148.99636 7368 ft 213 kts 265°
2026-04-22 02:55 -35.50671 148.98440 7052 ft 215 kts 289°
2026-04-22 02:55 -35.49397 148.96635 6763 ft 209 kts 324°
2026-04-22 02:55 -35.48598 148.95950 6821 ft 215 kts 325°
2026-04-22 02:55 -35.47299 148.95039 6827 ft 217 kts 344°
2026-04-22 02:56 -35.45822 148.95110 6776 ft 215 kts 26°
2026-04-22 02:56 -35.44798 148.96371 6751 ft 211 kts 70°
2026-04-22 02:56 -35.44657 148.98112 6650 ft 205 kts 95°
2026-04-22 02:56 -35.44690 148.99868 6389 ft 207 kts 89°
2026-04-22 02:57 -35.44448 149.01588 6138 ft 208 kts 75°
2026-04-22 02:57 -35.43960 149.03235 5923 ft 203 kts 70°
2026-04-22 02:57 -35.43448 149.04833 5724 ft 199 kts 70°
2026-04-22 02:57 -35.42976 149.06416 5543 ft 195 kts 71°
2026-04-22 02:58 -35.42528 149.07958 5360 ft 189 kts 72°
2026-04-22 02:58 -35.42087 149.09468 5152 ft 187 kts 71°
2026-04-22 02:58 -35.41648 149.10961 4916 ft 185 kts 71°
2026-04-22 02:58 -35.41212 149.12441 4674 ft 184 kts 71°
2026-04-22 02:59 -35.40779 149.13914 4445 ft 183 kts 71°
2026-04-22 02:59 -35.40351 149.15366 4352 ft 174 kts 71°
2026-04-22 02:59 -35.40025 149.16829 4310 ft 177 kts 81°
2026-04-22 02:59 -35.39777 149.18246 4162 ft 169 kts 78°
2026-04-22 03:00 -35.39180 149.19446 3997 ft 171 kts 33°
2026-04-22 03:00 -35.38038 149.19691 3878 ft 174 kts 358°
2026-04-22 03:00 -35.36853 149.19477 3617 ft 164 kts 352°
2026-04-22 03:00 -35.35832 149.19323 3359 ft 136 kts 360°
2026-04-22 03:01 -35.34881 149.19310 3057 ft 137 kts
2026-04-22 03:01 -35.33926 149.19362 2692 ft 137 kts
2026-04-22 03:01 -35.32981 149.19418 2452 ft 135 kts
2026-04-22 03:01 -35.32034 149.19434 2072 ft 136 kts
2026-04-22 03:02 -35.31124 149.19445 1875 ft 120 kts
2026-04-22 03:02 -35.30510 149.19447 1881 ft 58 kts 360°
2026-04-22 03:02 -35.30262 149.19448 1880 ft 20 kts
2026-04-22 03:02 -35.30222 149.19533 1881 ft 9 kts 103°
2026-04-22 03:03 -35.30241 149.19588 1878 ft 6 kts 117°
2026-04-22 03:03 -35.30264 149.19640 1881 ft 6 kts 112°
2026-04-22 03:03 -35.30251 149.19685 1878 ft 7 kts 62°
2026-04-22 03:03 -35.30213 149.19717 1880 ft 5 kts 22°
2026-04-22 03:04 -35.30203 149.19722 1877 ft 0 kts 20°